RH
18 18 18 18 18 18 18 18 18 18 18 18 18 19 19 19 19 20 20 20 21 21 21 21 22 22 22 22 21 21 20 20 20 20 20 19 18 17 17 17 15 13 13 14 13 13 14 19 25 26 27 39 71 92 101 104 100 102 90 89 101 99 100 100 98 97 90 70 42 22 12 13 13 13 19 21 22 22 25 32 37 41 44 47 47 41 35 31
19 19 19 19 19 19 19 18 19 18 19 19 19 19 19 19 19 19 20 20 21 21 21 21 22 22 22 23 22 22 21 20 20 20 20 20 20 18 17 17 17 15 13 14 14 14 14 16 16 13 10 13 33 59 86 102 103 100 85 87 102 101 101 99 91 78 68 52 24 16 15 13 16 18 24 26 27 27 28 30 30 33 34 33 33 28 28 30
20 20 20 20 20 19 19 19 19 19 19 19 19 19 19 19 19 19 19 19 20 20 21 21 21 22 22 23 23 22 21 20 20 20 20 20 20 19 19 17 16 17 16 14 13 14 14 14 12 11 11 9 11 20 44 75 91 95 93 97 100 99 100 94 85 69 67 58 25 16 19 17 21 24 29 29 29 29 27 25 22 23 21 23 32 33 31 31
21 21 21 20 20 20 20 19 20 19 19 19 19 19 19 19 19 19 19 19 19 19 20 20 20 21 22 23 23 24 22 20 20 20 20 21 21 20 20 19 17 16 17 17 14 14 14 14 13 10 11 12 12 9 11 30 51 66 80 89 91 98 101 97 98 90 87 78 40 22 25 25 31 36 36 32 31 28 23 20 17 21 24 26 33 33 26 26
21 21 20 20 20 20 19 19 19 18 18 18 17 18 18 18 17 17 17 17 18 17 17 18 18 19 20 21 22 24 23 20 19 20 21 20 21 21 20 20 20 18 16 17 17 15 14 14 15 12 11 10 12 12 8 8 17 31 46 64 83 102 103 96 102 102 101 91 49 28 34 37 43 46 42 36 32 25 20 22 23 28 31 28 27 22 16 16
20 20 19 19 18 18 18 18 18 18 18 18 19 19 18 19 18 18 18 17 17 17 17 16 17 17 17 18 20 22 24 23 20 19 21 21 21 21 21 20 21 21 18 17 17 17 16 14 14 14 12 11 10 12 12 9 6 11 20 42 79 100 92 86 95 99 98 82 48 33 39 43 48 49 43 34 26 22 25 29 30 30 27 23 18 13 10 8
19 19 19 19 19 20 20 21 21 21 22 22 22 22 22 22 22 22 22 22 21 21 20 19 19 18 18 17 17 18 21 23 21 20 21 21 21 21 21 21 21 21 21 20 18 17 18 17 15 14 14 13 11 10 12 12 9 8 11 28 70 94 86 83 93 100 91 63 40 38 42 46 50 45 36 30 26 30 34 33 30 25 23 23 21 21 22 21
21 21 21 22 22 23 23 24 24 25 25 26 26 26 27 26 26 26 26 26 26 26 26 26 25 23 22 20 19 18 18 20 21 22 22 21 21 22 21 21 21 21 22 22 21 20 18 18 17 15 15 15 13 11 10 12 12 10 9 18 48 79 91 97 101 99 77 43 32 41 45 46 42 37 38 40 40 39 37 33 27 21 27 33 33 34 34 33
25 25 25 25 25 25 26 26 26 27 28 28 29 29 29 30 30 30 30 30 30 30 30 30 30 29 28 26 24 22 20 19 19 20 22 20 20 22 22 21 21 21 22 22 22 22 21 19 19 17 15 15 15 14 10 10 13 12 11 11 24 48 66 81 91 86 57 30 31 40 41 41 39 44 52 51 47 41 36 31 27 27 36 39 37 35 33 33
32 32 32 31 31 30 29 29 29 28 28 28 28 29 29 29 30 30 31 31 32 32 32 32 32 33 32 31 30 28 26 23 21 20 20 20 19 20 22 21 20 21 22 23 22 22 23 21 20 20 18 16 15 16 15 10 9 11 12 11 13 21 28 37 53 64 53 40 43 47 50 52 54 58 56 50 45 40 36 33 34 38 42 40 36 34 32 30
32 32 31 31 30 30 30 29 29 28 27 27 27 27 27 27 27 28 28 29 30 31 32 33 34 34 34 33 33 31 31 30 27 24 21 20 19 19 20 21 21 21 21 22 23 21 22 23 22 22 20 19 16 15 17 14 9 8 10 12 11 13 15 14 26 50 64 66 67 66 66 65 62 60 55 50 46 42 40 41 45 47 45 42 38 34 29 24
26 26 26 26 25 25 26 25 25 25 24 24 24 25 24 24 24 25 26 26 27 27 28 30 32 34 35 35 35 33 33 32 32 30 27 24 22 20 19 20 22 22 20 20 23 22 21 22 22 23 22 21 19 17 16 17 14 8 6 10 12 13 14 15 22 40 60 74 79 75 70 67 61 57 54 51 47 44 44 49 54 52 49 44 38 34 26 20
23 23 22 22 21 21 21 21 21 21 21 21 20 21 21 21 21 21 23 23 24 25 25 26 28 30 32 34 35 35 35 34 33 33 33 31 28 25 21 19 20 21 21 20 21 22 21 22 22 22 23 23 22 19 17 17 17 13 7 6 9 13 12 14 19 27 45 65 75 72 65 61 55 51 52 51 47 45 45 50 56 54 50 42 33 28 21 17
20 19 19 18 18 18 18 17 17 17 17 17 17 17 17 17 17 17 18 19 20 21 23 24 25 27 30 32 32 34 37 36 35 34 34 36 35 32 28 23 21 20 21 20 20 21 21 22 22 22 22 23 24 22 19 17 17 17 13 7 5 9 11 12 13 16 28 44 55 57 53 49 43 40 46 50 47 46 46 50 55 53 44 34 25 19 13 11
16 16 15 15 15 14 14 14 14 14 14 14 14 14 14 14 14 14 14 15 16 16 18 20 21 24 27 29 29 31 34 35 37 37 35 36 37 37 35 31 26 22 21 20 20 19 20 21 22 22 21 22 23 24 22 19 18 17 17 13 6 6 9 11 12 12 14 20 27 28 29 38 43 42 46 49 44 43 49 52 51 44 33 24 15 9 7 6
13 13 13 13 13 13 13 12 12 12 12 11 12 11 11 12 11 12 12 12 13 13 14 15 16 18 20 24 26 28 30 32 35 39 39 37 37 38 38 37 34 29 24 21 20 19 19 20 22 24 22 21 21 23 24 21 19 17 18 17 11 8 9 12 12 12 13 16 18 16 25 48 65 68 57 47 41 36 40 43 37 30 21 14 7 5 7 6
14 13 13 13 14 14 13 13 13 12 12 11 11 11 10 10 10 10 10 10 10 11 11 11 12 13 14 16 19 22 25 27 31 36 40 40 38 38 38 39 38 36 32 26 23 21 19 19 21 23 24 23 21 22 22 22 22 18 18 18 15 12 11 15 15 12 12 15 20 21 41 71 83 87 69 45 45 42 35 31 24 19 11 6 8 9 10 9
15 15 15 15 15 16 16 15 15 14 13 13 12 12 12 11 10 10 10 9 9 9 9 9 10 10 11 12 13 15 18 21 25 29 34 38 40 40 39 40 39 38 38 35 29 25 22 19 18 20 25 26 23 22 20 22 24 21 18 17 18 17 13 16 19 17 13 14 19 17 49 87 75 65 58 37 37 37 28 24 16 12 7 6 13 13 13 12
17 17 17 17 17 18 18 18 18 18 16 16 16 15 15 14 13 13 12 11 10 10 9 9 9 8 9 10 10 11 12 14 17 21 26 30 36 39 41 41 40 39 39 41 38 31 26 22 19 20 25 26 23 21 19 21 25 24 21 17 18 19 16 17 18 21 18 15 19 13 43 87 62 39 43 28 22 22 18 17 11 8 8 11 14 12 13 12
20 20 19 19 20 20 21 21 20 21 19 19 19 18 18 18 17 18 16 14 14 13 12 11 10 9 9 9 9 9 10 11 12 14 17 21 27 33 38 40 41 42 41 42 42 38 33 27 25 24 22 22 23 22 20 20 24 24 23 20 18 18 17 19 16 21 23 18 22 14 23 56 50 43 45 22 14 17 13 12 10 12 12 11 13 12 12 13
22 22 22 22 22 22 23 22 22 22 22 21 21 20 21 20 20 21 21 19 18 18 18 17 14 12 11 11 10 9 9 9 10 10 12 14 18 23 29 35 39 43 43 41 41 42 41 36 33 30 22 19 21 23 22 21 23 24 24 22 20 18 17 19 18 19 23 21 23 17 19 41 43 40 38 17 12 14 10 16 22 24 20 15 16 17 18 20
25 25 26 25 24 24 24 24 23 23 23 22 22 21 22 21 21 21 22 23 22 22 24 22 21 19 15 14 13 11 10 9 8 9 10 10 13 15 20 26 32 39 42 42 42 43 47 45 40 34 26 19 18 22 24 23 24 23 24 23 21 20 17 19 20 20 23 24 24 19 23 39 32 24 27 15 10 13 13 24 31 27 26 24 22 23 25 28
29 28 29 28 27 26 27 26 26 25 24 24 24 23 23 22 21 19 20 22 22 23 26 26 26 25 22 20 19 16 13 12 10 9 9 9 10 11 13 17 23 30 35 41 45 46 50 52 47 39 31 23 19 20 23 24 26 26 25 24 22 21 19 18 18 20 22 23 28 25 22 28 21 23 41 27 8 12 14 19 26 26 29 31 28 28 30 32
28 28 28 28 27 26 27 27 26 27 27 28 28 27 27 26 24 22 20 23 23 21 23 26 27 27 25 25 25 23 18 15 14 12 11 9 9 9 11 12 15 21 27 34 42 46 51 55 53 47 39 32 25 20 21 23 27 29 28 25 22 21 21 19 17 19 21 22 27 30 28 26 16 20 52 54 22 11 16 18 20 25 30 32 31 31 32 34
29 29 29 27 26 25 25 27 27 28 29 31 32 31 31 30 28 28 26 26 29 25 22 25 28 27 25 25 27 28 25 22 19 16 14 11 10 9 9 10 11 14 19 25 33 41 50 56 55 53 48 43 34 25 24 25 27 29 30 28 23 20 21 20 19 18 19 21 23 26 30 30 20 11 31 59 47 19 19 23 21 26 28 29 33 33 33 35
30 31 32 31 29 27 25 27 28 28 29 31 33 32 33 33 31 31 30 29 32 31 26 27 30 29 26 23 24 25 27 29 27 22 19 14 11 11 10 10 10 11 13 17 23 32 43 51 55 56 54 51 44 34 27 26 28 30 34 34 27 20 20 19 20 21 19 19 19 22 28 29 29 17 10 44 67 44 27 24 20 27 30 28 31 31 31 33
30 31 34 34 34 33 30 29 29 29 29 31 32 32 32 33 33 33 31 31 32 33 33 33 32 31 31 28 25 23 24 27 30 28 25 20 17 15 13 11 10 10 11 12 16 22 32 42 50 55 56 54 52 45 35 30 30 32 35 36 32 24 21 19 19 21 20 18 17 19 25 28 33 30 12 19 45 46 36 29 24 27 30 30 31 31 31 31
30 32 34 36 37 38 36 32 31 31 31 32 32 32 32 32 33 33 31 31 32 34 38 38 34 32 33 34 31 28 24 24 26 26 29 29 24 19 16 15 13 11 10 10 12 15 21 30 39 49 54 55 55 51 46 37 29 31 34 33 34 28 22 20 18 20 21 19 17 17 20 24 31 38 31 20 28 39 37 35 39 38 32 29 30 30 31 32
31 32 34 37 36 38 39 34 30 30 31 33 33 33 33 32 31 32 30 29 32 35 36 37 39 37 33 32 36 35 30 28 24 22 27 30 28 26 24 21 18 14 12 10 11 12 15 20 28 38 47 53 55 54 52 45 32 30 33 31 33 30 23 20 18 18 20 19 19 18 16 20 25 33 38 35 38 40 32 37 47 42 35 33 32 32 32 33
34 34 35 38 38 37 38 36 32 30 29 31 32 33 33 32 31 30 26 29 36 37 32 33 40 42 36 32 34 33 33 34 28 23 29 29 25 30 31 28 24 20 16 12 11 11 12 14 19 26 35 44 52 54 54 53 43 34 33 32 31 30 25 21 18 17 17 18 21 21 18 20 21 26 34 38 41 35 28 37 42 40 44 40 32 33 36 39
33 35 37 40 43 43 42 40 39 36 31 30 31 32 32 32 31 27 25 33 41 38 32 34 38 39 39 37 35 32 31 35 31 28 34 30 24 28 31 32 31 26 22 17 14 12 11 12 14 18 24 33 43 49 52 54 52 45 38 32 31 32 28 22 19 15 14 17 21 22 20 20 19 21 27 34 40 37 31 33 36 43 52 49 46 51 51 48
32 33 35 37 41 45 44 42 43 42 38 35 33 31 32 32 30 28 32 39 41 36 32 33 34 36 40 40 39 37 34 32 29 30 36 33 27 27 28 30 31 32 30 25 19 15 13 11 12 14 17 23 31 40 47 51 52 52 45 34 30 32 32 27 21 16 15 20 23 23 22 21 21 21 20 22 30 36 38 39 39 42 45 50 58 62 59 56
34 32 33 34 36 40 41 40 41 41 40 40 38 37 35 33 32 34 40 40 37 35 32 28 28 33 39 41 40 39 38 36 32 30 34 35 30 28 29 28 28 32 35 33 27 22 17 13 11 12 13 16 22 29 38 43 45 48 48 41 34 34 34 31 28 22 20 24 25 23 21 20 22 22 20 20 21 25 31 38 43 46 47 52 57 55 58 66
34 32 32 33 33 34 34 33 32 32 33 34 36 39 39 35 37 41 43 41 40 38 33 28 27 27 31 37 40 39 40 42 42 36 34 37 34 30 31 30 29 31 33 34 33 31 25 18 14 13 13 13 16 20 27 35 38 41 47 47 40 36 35 33 33 31 27 27 29 26 21 21 25 24 21 21 20 19 21 25 30 38 45 56 75 82 76 74
36 34 32 31 30 29 27 26 25 24 24 25 26 31 33 36 43 46 43 43 43 43 38 34 31 28 26 30 37 42 40 41 46 43 37 38 38 34 32 33 32 32 33 34 35 35 33 28 20 15 14 13 14 16 19 26 33 37 43 48 42 37 38 34 33 34 31 29 30 27 24 23 24 25 23 21 19 18 18 19 19 23 29 39 68 90 83 67
38 37 35 33 31 29 27 26 26 25 23 23 22 22 25 32 41 44 45 45 44 44 44 40 36 34 32 29 33 41 40 36 39 40 38 40 42 41 37 38 40 37 34 35 35 35 35 37 33 22 16 15 14 14 14 18 25 30 36 43 44 44 45 40 35 33 32 30 27 26 25 23 21 22 22 20 20 20 18 18 17 18 21 24 37 57 58 44
37 37 36 34 33 31 31 30 30 28 26 25 22 20 22 25 30 38 47 52 50 48 46 44 41 39 37 34 32 36 39 37 34 32 34 37 42 47 47 45 46 43 37 35 35 35 35 38 40 33 24 19 16 15 14 14 18 23 28 34 38 45 47 42 37 34 32 30 27 27 26 22 20 20 22 21 20 22 20 18 18 17 18 19 22 30 31 23
33 34 33 32 31 31 31 31 31 30 29 27 24 23 22 22 26 35 46 53 55 52 48 45 44 43 42 38 35 36 38 39 36 31 30 32 35 44 51 49 46 47 48 44 36 32 34 35 38 40 36 29 22 18 14 13 14 17 21 26 30 39 45 43 40 38 36 31 28 30 29 23 21 21 24 25 21 21 22 19 19 20 19 18 18 20 19 17
28 29 29 28 28 29 30 31 31 30 29 28 27 26 24 22 24 28 34 42 46 47 47 47 47 47 45 41 40 41 41 41 42 36 30 30 31 36 46 51 49 49 55 55 45 36 33 34 36 38 39 39 32 24 18 15 15 14 15 20 25 31 40 44 42 41 41 36 30 32 32 26 24 24 25 27 23 22 23 21 20 21 20 20 19 18 20 23
22 23 24 25 24 24 27 30 31 31 30 29 28 27 26 24 23 23 26 32 38 40 41 44 46 47 46 43 42 42 41 40 41 39 33 31 32 33 38 47 53 54 55 58 61 54 39 31 35 35 34 38 39 36 30 20 15 15 13 15 20 24 30 37 41 39 41 42 36 32 32 30 28 27 25 27 27 25 24 21 22 23 20 21 22 19 20 26
20 20 21 22 21 20 23 26 28 29 28 28 28 27 27 25 24 24 25 29 35 35 36 39 41 41 42 42 42 41 40 38 37 36 33 31 32 35 35 40 52 59 56 54 62 70 56 36 34 36 31 33 39 43 44 32 18 15 15 13 14 19 22 29 37 38 39 44 42 35 32 32 32 30 27 28 29 29 26 21 22 25 23 22 24 21 20 23
18 19 20 20 20 19 21 23 24 26 26 27 27 27 26 25 24 24 25 27 29 30 32 35 35 36 39 40 41 40 39 37 36 33 31 31 33 36 35 37 45 53 55 50 52 70 75 51 32 34 33 30 33 40 49 46 31 18 15 15 13 14 17 22 29 35 39 42 44 42 36 32 33 33 31 31 30 29 28 24 24 25 25 25 25 23 21 23
17 17 19 20 20 19 19 20 21 23 24 24 25 25 24 23 23 22 23 25 27 30 32 34 35 38 40 40 40 41 39 38 37 33 31 32 34 34 36 37 40 44 48 47 45 58 74 60 34 31 37 34 31 33 42 52 46 29 16 15 15 14 14 17 21 26 33 39 43 46 42 35 33 33 34 35 33 31 29 26 25 25 25 26 27 23 19 23
14 15 16 17 18 17 17 18 19 20 21 22 22 22 21 21 20 19 22 25 29 33 35 37 39 41 42 42 42 42 41 38 36 34 33 32 32 32 36 38 38 38 40 43 43 46 60 64 47 33 34 36 32 29 34 44 49 43 31 20 17 16 13 14 17 19 25 33 40 45 45 41 36 33 35 38 38 36 33 29 27 26 25 26 27 25 19 21
13 13 14 14 14 15 14 14 15 16 17 18 18 18 18 17 17 18 21 25 30 34 38 40 42 43 44 43 42 42 41 38 36 35 34 33 30 29 34 39 37 38 39 39 38 38 47 60 55 37 30 35 36 30 32 40 45 52 52 36 20 17 16 14 14 16 19 24 33 40 41 42 41 36 34 36 39 39 38 35 30 29 28 26 28 27 23 21
12 12 13 13 13 13 12 13 13 13 14 14 14 14 15 15 15 17 19 23 27 33 38 40 40 41 42 40 40 40 41 39 37 36 35 34 30 27 31 37 37 36 37 37 37 39 42 49 53 46 36 36 39 36 34 38 40 47 57 53 32 19 18 17 13 13 15 18 24 32 36 41 45 43 36 34 36 38 40 40 36 33 31 29 29 28 25 25
11 11 11 12 11 11 11 11 11 11 11 11 11 12 13 14 15 17 20 23 27 30 33 34 34 36 37 37 38 39 40 40 38 37 37 35 32 30 31 35 35 33 33 38 41 42 40 41 47 52 45 38 39 42 41 38 37 40 50 57 49 30 18 17 15 12 12 14 17 24 31 37 42 44 41 36 33 35 39 42 40 37 34 32 31 28 26 27
9 9 9 10 10 10 10 11 11 11 11 12 12 13 14 16 18 21 23 25 28 30 31 32 33 34 36 37 38 39 39 40 38 37 38 37 34 33 32 34 35 30 29 36 42 42 40 39 41 45 47 43 40 42 44 41 39 41 42 47 55 48 29 18 15 14 13 13 14 18 24 31 37 42 45 41 36 34 36 40 43 41 38 36 34 31 28 28
12 13 13 13 14 14 15 15 15 16 16 16 17 17 18 20 21 23 25 26 28 29 30 32 33 33 34 35 37 38 37 37 37 35 35 35 34 33 33 34 34 29 25 29 38 41 37 36 38 39 42 46 45 40 40 42 44 47 44 40 47 53 43 26 17 15 15 13 12 14 17 22 30 37 43 43 40 36 34 36 41 43 42 38 36 37 35 31
16 16 16 16 16 16 17 17 17 18 18 18 18 18 18 20 21 22 23 24 26 27 28 29 31 32 34 36 37 39 39 39 39 38 37 35 33 31 31 30 29 26 22 25 34 38 34 32 35 37 38 41 43 40 38 43 48 49 47 42 41 48 49 39 24 17 16 15 13 13 14 17 22 29 37 41 42 39 35 33 36 41 44 41 38 38 37 33
13 13 12 12 12 11 11 11 11 11 12 12 12 12 13 14 15 17 18 20 21 23 24 25 27 28 31 33 36 38 38 38 39 41 43 44 42 39 34 31 30 27 24 27 33 33 31 30 32 35 34 31 34 39 42 48 50 46 43 41 40 42 47 48 40 27 20 17 15 14 13 13 16 21 28 35 40 42 40 36 34 35 41 43 39 37 37 36
7 6 6 5 5 5 5 5 5 5 5 5 5 5 6 6 7 8 10 11 13 15 18 19 21 23 24 27 31 33 35 37 38 39 42 46 48 47 45 44 44 41 34 33 34 32 31 32 32 31 30 29 33 38 47 56 53 40 36 40 42 43 47 53 53 43 29 21 17 15 13 12 13 16 21 27 34 39 41 40 36 34 36 40 39 37 36 37
Wind_Speed
27 27 27 27 27 27 27 26 26 26 25 25 25 24 24 23 22 21 21 20 19 19 18 17 17 17 18 18 18 18 17 16 15 14 13 12 12 12 12 13 13 14 14 13 13 13 12 10 7 4 6 13 17 18 17 17 18 18 19 17 15 15 17 22 24 25 25 27 29 29 29 28 26 25 24 24 24 23 22 22 22 22 22 21 21 22 23 23
29 29 29 29 29 29 29 29 29 28 28 28 27 27 27 26 25 24 23 22 21 21 20 19 18 17 18 19 19 18 17 17 16 15 13 12 11 12 11 11 11 11 12 12 11 11 10 10 8 6 1 8 15 19 19 18 20 21 20 18 18 17 17 20 23 24 24 25 27 28 28 27 26 25 24 24 23 23 22 22 22 21 22 21 21 22 23 22
32 32 32 32 32 32 32 32 31 31 30 30 30 29 29 28 28 27 26 25 23 22 22 21 20 19 18 18 20 20 19 17 17 16 15 13 12 11 11 10 10 10 10 10 10 10 9 8 7 7 5 0 8 16 21 23 24 24 22 20 19 18 19 21 22 25 25 25 26 27 27 26 26 24 23 24 23 23 23 22 22 21 22 21 20 20 21 20
35 35 35 35 35 34 34 34 33 33 32 32 31 31 31 30 30 29 28 27 26 25 24 23 22 20 19 18 19 21 22 19 17 17 16 16 14 11 10 10 10 9 8 8 9 9 8 8 6 7 7 5 1 7 17 24 27 27 26 24 20 16 21 23 20 23 25 25 25 25 26 25 24 24 23 23 22 23 22 22 22 21 21 20 18 18 18 16
37 37 37 37 36 36 36 35 35 34 33 32 32 31 31 31 30 30 29 28 27 26 25 24 23 22 20 19 19 21 24 22 18 17 17 17 16 14 11 10 10 10 9 8 7 7 8 8 7 6 6 6 5 3 7 16 24 28 27 26 22 15 21 25 22 24 26 25 24 25 24 24 23 23 23 22 22 22 22 21 21 20 18 16 15 14 13 12
39 39 38 38 38 37 36 36 35 34 33 33 32 31 31 30 30 30 29 28 27 26 26 24 24 23 22 21 20 20 24 25 22 18 18 19 18 17 14 12 10 10 10 9 8 7 7 7 7 7 6 6 6 6 5 5 13 22 26 28 26 21 21 23 23 26 27 26 25 24 24 23 23 23 22 22 22 21 20 20 19 16 14 12 11 10 10 10
40 40 39 39 38 38 37 37 36 35 35 34 33 33 32 32 31 31 30 30 28 27 26 25 24 24 23 22 21 21 23 27 26 20 19 20 20 20 18 16 13 11 11 10 10 8 7 7 8 8 7 7 7 7 7 5 3 11 20 27 30 26 22 21 23 25 26 26 25 24 24 23 22 21 20 20 20 20 19 17 16 13 11 10 9 9 9 10
41 41 41 40 40 40 40 39 39 39 38 37 37 36 35 35 34 33 33 32 31 30 29 28 26 25 25 24 22 22 22 26 27 23 22 22 21 22 21 19 17 14 12 12 11 10 9 8 8 8 8 8 8 7 8 7 5 2 10 21 29 29 25 23 24 24 23 24 24 24 23 22 21 19 19 19 19 18 16 15 14 12 10 9 9 10 10 11
43 43 43 43 43 43 43 43 43 43 42 41 41 40 39 38 38 37 36 35 35 34 33 31 30 28 27 26 25 24 22 25 27 26 26 23 21 23 23 22 21 18 16 15 13 12 11 9 8 9 9 9 8 8 8 8 7 5 1 9 18 25 27 29 29 26 22 21 21 21 20 19 18 17 18 18 17 16 15 15 13 12 11 11 10 10 10 10
45 46 46 46 46 47 47 47 47 46 46 45 45 44 43 42 41 41 40 39 38 38 37 35 34 33 31 30 29 27 24 25 26 26 28 27 23 23 24 24 23 22 20 18 16 14 13 12 10 9 9 9 9 8 8 8 8 7 4 1 6 13 20 27 30 26 20 19 19 18 18 17 17 17 17 17 16 16 17 16 14 13 13 12 11 11 10 11
46 47 47 47 48 48 48 48 49 49 48 48 48 47 46 46 45 44 44 43 42 41 40 39 38 37 36 34 33 30 28 27 27 27 29 29 27 24 25 26 26 25 24 22 20 18 16 14 13 11 10 10 10 9 8 8 8 8 7 5 3 4 10 17 23 24 21 19 17 17 17 16 17 18 17 16 17 18 18 16 15 14 14 13 12 11 10 10
47 48 48 48 48 48 49 49 49 49 49 49 49 48 48 47 47 46 46 45 45 44 43 42 41 40 39 39 37 35 32 31 30 29 30 31 30 27 26 27 28 28 26 25 24 22 19 17 15 13 11 11 11 11 10 8 7 7 8 7 6 4 4 8 14 19 20 19 17 17 17 17 18 18 16 15 16 18 18 17 16 15 15 14 13 12 11 10
48 49 49 50 50 50 50 50 51 51 51 51 51 51 50 50 49 48 47 47 47 46 46 45 44 44 42 42 41 39 37 35 33 32 31 32 32 30 28 27 29 30 29 27 26 25 23 20 18 16 13 12 12 12 11 10 8 7 7 7 6 6 4 4 8 12 15 17 18 18 17 17 18 17 15 14 15 17 18 18 17 16 16 15 14 13 10 9
49 50 51 51 51 52 52 52 53 54 54 54 54 54 53 53 52 52 50 50 49 48 47 47 46 46 45 45 45 42 41 39 37 35 34 34 34 33 31 29 29 31 31 30 28 28 27 24 22 19 16 14 13 13 12 11 10 7 6 6 6 5 5 3 4 7 11 14 16 17 16 15 16 16 15 14 14 16 17 18 17 17 17 16 14 11 7 8
49 49 50 51 51 51 52 52 53 54 55 55 56 56 56 56 56 55 55 53 52 51 50 49 48 47 47 47 47 46 44 42 41 40 38 37 37 36 35 32 31 32 33 32 31 30 29 27 25 23 20 17 15 14 13 12 11 9 7 5 4 4 3 2 1 3 6 10 13 14 14 14 14 13 13 13 14 15 16 17 17 17 17 15 13 9 8 9
47 48 48 48 48 48 48 50 51 52 53 54 54 55 55 56 56 57 57 56 56 55 54 53 52 51 49 49 49 49 48 46 44 43 42 41 40 40 39 36 34 33 34 34 33 32 31 30 28 26 24 21 17 16 16 14 13 12 9 7 4 3 2 3 3 2 2 5 8 11 12 13 13 10 10 13 13 15 16 16 17 17 16 14 12 12 12 12
45 45 44 44 44 44 44 45 46 48 48 50 50 51 52 52 53 54 55 55 56 56 55 55 55 54 53 52 52 51 50 49 47 47 46 45 43 43 42 40 38 36 35 35 34 34 33 31 31 29 27 25 22 20 18 15 15 15 12 10 6 3 1 2 3 3 2 3 5 8 10 10 10 9 9 12 13 14 15 15 16 16 15 14 13 14 15 16
42 42 41 41 41 41 41 42 43 44 45 45 46 46 47 48 49 49 51 51 51 52 53 54 55 55 55 55 55 54 53 51 50 49 49 48 47 46 45 44 42 39 37 36 36 37 35 33 32 31 29 29 28 25 20 16 17 18 15 13 9 7 5 1 1 3 3 3 4 6 8 7 7 8 9 11 13 14 15 15 15 16 16 16 16 16 17 19
41 40 40 39 40 40 41 41 41 42 42 43 43 44 44 46 46 46 48 47 47 48 49 50 51 51 52 55 55 56 57 54 52 52 51 51 50 49 48 47 46 43 41 39 39 39 38 35 34 32 32 33 32 28 23 18 19 21 19 16 13 11 9 6 4 2 3 2 3 4 6 5 6 6 7 9 12 13 14 15 16 17 17 18 18 18 19 20
41 41 40 40 39 40 41 41 41 41 41 40 41 41 42 43 43 44 46 45 45 46 47 47 48 47 47 51 52 54 56 56 55 54 53 53 52 51 51 50 49 48 45 43 42 41 40 37 35 35 36 36 34 31 27 22 21 23 22 20 17 15 12 10 7 4 3 2 3 4 5 6 6 7 8 9 11 13 15 17 17 17 17 18 19 19 19 19
42 42 42 41 40 40 41 41 41 41 40 40 40 39 40 40 40 41 42 43 43 43 44 45 46 46 45 46 49 50 52 54 55 55 55 55 54 54 53 52 52 51 50 47 44 42 40 38 37 38 39 38 36 34 31 27 25 25 25 23 21 18 15 13 11 8 6 5 5 5 6 7 7 8 8 10 12 14 17 18 18 17 16 17 19 19 19 18
43 44 44 43 41 41 42 42 42 41 41 40 40 39 39 39 38 38 38 39 40 38 39 41 42 44 44 44 46 47 48 50 52 53 55 56 55 56 55 55 54 54 53 50 47 45 42 41 42 44 43 41 38 36 33 31 29 28 27 26 25 22 18 16 14 12 10 8 7 7 8 9 9 9 10 10 13 17 18 17 16 16 16 17 18 18 18 17
44 45 45 44 43 42 43 44 43 42 41 41 41 40 39 39 38 37 35 36 38 34 33 36 36 38 41 41 43 45 45 46 47 49 53 54 55 55 56 57 56 55 55 53 52 49 46 47 48 48 48 44 39 37 35 33 32 31 31 29 29 26 22 20 18 16 15 12 11 9 9 10 10 13 12 12 14 16 16 16 16 17 17 17 18 18 17 16
44 46 46 46 45 44 44 45 44 43 42 41 41 41 39 38 37 36 34 34 37 34 30 32 35 35 37 35 36 41 43 44 44 46 49 52 53 53 55 58 58 57 57 56 55 52 51 52 52 51 50 47 42 38 36 34 33 33 33 33 32 29 26 25 20 18 18 16 15 13 12 12 13 15 15 15 16 16 15 16 16 17 18 19 19 18 17 16
44 46 47 47 47 46 45 46 46 45 45 44 44 43 41 40 38 36 34 32 36 37 32 32 37 38 37 33 32 35 37 40 43 44 45 48 49 50 53 55 57 59 60 58 57 55 55 55 54 52 52 51 47 41 39 37 35 35 36 37 36 32 30 29 24 21 20 19 19 17 15 15 16 17 18 18 18 17 16 16 17 19 20 21 19 18 18 16
45 46 47 48 48 48 47 47 49 48 48 48 48 47 45 44 42 40 38 33 34 38 35 34 38 41 40 36 34 34 32 35 39 41 43 45 46 47 51 52 54 59 61 60 59 57 58 59 57 55 54 54 52 46 42 40 37 36 38 40 39 36 33 32 29 24 23 23 22 19 18 19 18 19 20 20 19 18 18 18 19 22 23 21 19 18 17 16
46 47 48 50 50 51 50 49 51 51 50 52 52 51 50 49 47 46 44 38 36 38 39 39 39 40 42 41 39 37 33 33 35 37 39 42 44 46 47 49 52 55 59 61 60 59 61 62 59 58 57 57 55 50 47 46 42 38 40 43 43 40 37 35 33 29 28 28 24 21 21 20 21 21 22 21 21 20 21 21 21 23 24 23 20 19 18 17
49 49 50 52 52 53 53 51 51 53 53 54 55 54 53 53 52 51 49 45 42 42 43 45 44 42 43 43 43 41 37 37 36 34 34 37 41 44 44 46 50 52 55 58 60 63 64 64 61 60 60 58 56 55 53 51 47 43 44 46 46 45 41 39 36 32 33 31 26 24 23 21 22 23 24 23 22 22 23 23 23 24 25 25 23 21 20 18
52 52 52 55 55 54 57 55 52 53 54 55 56 56 56 55 55 55 53 50 49 50 47 48 50 48 46 44 44 44 41 41 39 34 34 36 37 39 41 44 47 48 51 54 58 63 65 65 64 62 61 60 59 60 59 55 52 50 48 47 48 48 44 42 39 36 36 33 28 27 25 22 23 24 24 24 24 24 25 25 24 26 26 26 26 24 22 21
55 55 55 57 58 57 59 58 56 55 55 56 57 57 57 57 57 56 54 51 54 56 52 50 54 55 52 48 48 48 44 44 43 37 38 39 35 34 36 40 43 45 48 50 54 61 65 66 66 64 63 63 63 63 62 60 58 55 52 49 49 50 48 45 42 40 38 33 31 31 28 25 25 24 23 24 26 28 28 27 26 27 27 27 28 27 26 25
58 58 58 59 60 61 61 60 60 60 59 59 59 60 59 59 59 56 54 54 57 59 55 54 57 58 57 56 54 52 49 48 46 41 42 43 38 35 35 37 39 41 44 47 50 56 62 65 65 66 67 66 66 66 64 64 62 57 56 54 51 51 51 48 44 42 37 32 33 35 32 29 27 27 27 28 29 30 29 29 29 29 28 28 28 28 29 29
61 62 62 62 62 64 65 63 63 64 63 62 63 63 63 62 59 55 56 59 60 60 59 58 58 59 61 61 58 57 55 53 49 43 44 46 42 38 37 37 37 37 40 44 48 52 56 61 64 66 68 68 68 67 67 66 64 62 62 59 54 53 52 51 47 41 37 35 37 38 37 33 29 30 31 31 31 31 30 31 31 30 30 30 29 29 30 29
65 65 66 66 65 67 68 66 66 67 66 66 66 65 67 64 59 58 61 63 62 63 63 60 59 60 62 64 62 60 59 58 54 48 47 48 46 41 40 39 37 36 38 41 44 47 50 56 61 64 67 70 70 69 70 68 65 67 66 62 57 55 53 52 49 44 41 42 42 42 40 35 32 35 35 33 33 33 33 33 32 32 31 30 30 30 30 28
69 68 69 69 69 69 71 71 70 70 70 70 69 69 68 63 60 63 66 66 67 68 67 64 62 61 61 64 65 63 61 60 60 57 52 51 49 45 43 42 39 38 39 40 39 43 47 50 55 61 65 69 71 71 72 71 70 71 70 66 62 59 57 54 50 49 49 49 48 46 41 37 38 40 39 37 36 35 35 34 34 34 33 32 31 31 31 30
73 73 72 73 73 72 73 74 74 74 74 74 73 72 68 63 64 68 69 69 72 72 72 70 67 64 63 63 66 67 66 63 62 62 59 55 53 49 46 45 43 41 42 41 39 40 43 45 50 57 63 65 69 72 74 75 74 73 73 70 65 61 60 57 54 56 56 54 52 47 43 43 45 45 44 42 40 37 37 36 35 35 34 34 33 32 32 32
77 77 77 78 77 76 76 77 79 80 79 79 77 73 69 67 70 72 72 73 75 75 76 75 72 69 68 66 66 68 70 67 66 65 62 59 57 54 50 48 49 47 44 43 42 40 40 41 46 52 57 61 65 71 75 76 75 75 75 71 66 64 64 63 61 61 59 56 52 48 46 47 48 46 46 46 42 40 40 39 37 36 36 37 36 33 33 34
81 82 83 83 82 81 81 82 84 85 84 84 81 75 73 74 75 75 76 77 77 78 79 78 76 74 73 72 68 69 72 72 71 68 65 62 59 58 56 53 53 52 49 47 47 44 41 40 43 46 50 56 62 68 73 76 77 78 75 71 70 70 69 68 66 64 62 58 54 50 49 50 50 48 47 48 45 44 44 42 40 38 38 38 36 33 34 35
87 87 89 89 87 86 87 88 90 90 89 88 84 79 79 79 79 79 80 80 81 82 82 80 79 79 78 76 73 72 74 75 74 73 70 66 62 60 61 59 56 55 55 54 52 48 44 43 43 43 46 51 57 63 69 72 74 76 75 74 74 72 70 71 70 66 63 60 56 54 53 52 50 48 48 50 49 47 47 46 43 40 41 40 38 36 35 36
91 92 95 95 93 92 92 93 95 95 94 92 88 86 86 85 84 84 84 85 85 85 85 83 82 83 82 80 77 77 78 77 77 76 74 71 67 63 62 63 61 59 59 59 57 54 50 47 46 45 44 47 51 55 60 65 70 74 78 79 78 74 72 76 75 70 66 64 60 57 56 52 50 49 50 52 51 49 50 50 46 45 44 42 41 41 38 38
95 95 98 100 99 97 97 98 100 100 99 97 94 93 93 92 91 90 89 89 90 89 88 87 86 86 85 83 81 81 82 81 79 78 77 74 71 68 65 65 64 63 63 61 60 61 57 50 49 50 47 44 44 45 51 60 68 74 79 81 80 77 75 78 79 74 70 68 64 61 59 55 52 53 54 54 53 52 54 53 48 48 48 44 44 46 41 39
99 99 102 104 104 103 102 102 104 104 104 102 100 99 98 98 97 96 95 94 94 94 93 92 91 90 88 88 86 85 86 85 83 81 80 77 74 72 70 68 67 68 67 64 62 64 64 57 52 54 50 43 40 40 46 57 67 71 76 79 81 80 79 81 82 78 74 72 69 65 60 57 56 56 56 57 58 56 56 54 50 49 49 46 48 50 44 42
105 105 107 109 110 109 107 107 107 108 108 106 105 104 104 104 103 102 101 100 100 99 98 98 96 94 93 92 91 90 88 87 86 85 82 79 76 75 75 72 71 71 71 68 65 64 68 65 56 52 50 45 43 42 43 50 60 67 72 75 79 82 82 82 83 80 77 76 72 69 64 60 60 59 58 59 60 59 58 57 53 51 51 49 51 54 49 45
110 110 112 115 116 115 114 112 111 113 113 111 110 110 110 109 108 107 106 106 105 104 103 102 100 98 97 96 96 94 92 91 89 87 85 82 81 79 77 75 75 75 74 72 69 67 70 70 60 51 50 50 48 45 42 45 52 60 67 70 74 79 81 82 82 82 82 79 76 74 70 65 63 62 60 61 62 62 61 59 56 54 53 52 54 56 52 47
115 115 116 119 122 121 120 118 117 118 119 118 116 115 114 114 113 112 111 110 109 108 108 106 104 103 102 100 100 98 97 95 92 89 88 87 87 84 79 78 79 78 77 76 73 71 70 71 68 58 51 51 51 46 42 44 46 50 57 63 68 73 79 82 85 86 86 82 79 78 74 69 66 65 63 63 65 65 64 61 58 56 55 55 56 57 53 49
120 120 121 124 127 127 125 123 123 123 124 124 123 121 119 119 117 116 116 115 114 113 112 111 109 108 107 106 104 102 101 100 97 94 91 91 93 89 82 82 82 80 80 79 77 74 71 72 74 64 52 50 52 48 44 46 47 46 50 58 65 71 76 81 86 90 90 84 82 82 78 73 70 69 68 66 67 67 66 64 62 59 57 57 57 59 57 52
125 124 125 128 131 131 130 129 129 130 130 130 129 126 124 123 122 121 121 120 119 118 118 117 115 114 113 111 109 107 105 105 102 99 96 95 96 93 88 86 86 84 82 80 78 77 75 73 73 69 59 54 55 53 51 51 50 48 48 54 62 69 73 78 85 91 91 88 86 84 80 77 76 74 72 70 69 69 67 67 67 63 60 60 60 61 59 54
130 129 130 132 134 134 135 135 135 135 135 134 133 130 129 128 127 127 126 125 125 125 124 123 120 119 118 116 114 112 110 110 108 104 101 98 97 97 94 91 91 89 84 80 80 81 79 75 72 71 68 62 58 59 59 55 51 50 50 51 57 65 71 77 83 88 89 91 90 85 82 83 82 78 76 73 72 71 69 69 70 69 66 64 64 63 60 56
135 134 134 135 136 136 137 139 139 139 139 139 138 135 133 133 132 132 132 131 131 131 130 128 126 125 123 121 120 118 116 114 112 108 105 102 100 100 99 96 94 93 88 83 82 83 81 77 74 72 71 68 64 63 63 59 54 53 52 51 53 60 67 74 79 82 85 91 92 87 85 86 84 81 80 77 74 74 74 72 72 73 72 68 66 65 61 60
140 140 140 139 139 139 140 141 143 143 143 143 142 140 138 137 137 137 137 137 137 137 135 133 132 131 129 127 125 123 120 118 116 113 110 107 105 104 103 101 98 96 94 87 83 84 82 78 76 75 73 72 71 66 62 61 59 57 55 54 54 57 62 69 74 77 81 87 91 90 89 88 85 84 85 82 78 78 79 76 73 75 76 73 69 66 64 63
143 143 142 141 140 140 140 141 143 144 144 143 143 141 139 138 138 139 140 140 140 141 140 138 136 135 133 131 129 127 125 123 119 116 114 112 111 108 107 104 100 99 97 90 85 86 84 80 78 78 77 75 72 69 64 62 63 62 58 55 55 56 58 63 68 73 77 82 87 91 92 90 87 87 89 87 84 83 82 79 76 76 77 76 72 69 66 64
141 140 138 137 135 134 134 134 134 134 135 135 136 135 134 134 135 136 137 139 140 141 141 140 139 138 136 135 135 133 131 127 122 119 116 114 113 111 110 106 104 103 100 94 90 89 86 82 80 82 80 74 70 69 68 66 68 67 59 54 54 55 55 58 61 67 73 79 84 89 92 91 89 89 91 91 90 88 85 83 81 79 79 79 76 72 69 66
128 125 123 121 118 117 116 115 115 115 116 117 118 118 119 120 121 123 126 129 132 134 137 138 138 137 137 137 137 136 133 130 126 123 120 118 115 114 112 109 107 107 105 101 96 93 89 86 84 84 80 73 70 70 71 76 76 64 51 50 54 57 58 58 59 63 69 75 81 86 90 90 91 93 95 96 96 93 88 86 84 82 81 81 79 75 72 70
Wind_Direction
270 271 271 272 273 274 275 276 278 278 280 281 282 283 284 285 286 288 290 292 295 297 300 303 307 312 316 319 323 327 331 337 341 347 355 2 6 13 22 31 40 44 46 48 53 58 63 69 81 114 203 211 208 206 210 216 215 220 220 218 234 247 253 254 253 253 255 257 255 252 251 251 252 252 253 253 254 254 252 251 251 252 254 256 257 261 265 268
270 271 272 272 273 274 275 276 277 278 279 280 281 282 283 283 284 285 285 286 288 290 292 295 297 302 306 310 313 316 319 324 328 332 339 348 354 358 5 15 26 35 41 42 43 46 54 62 65 64 128 223 224 216 214 215 214 222 224 221 230 236 248 256 256 256 256 256 252 251 250 249 249 248 248 249 250 250 251 251 252 253 255 258 261 265 269 272
271 271 272 273 273 274 275 276 276 277 278 278 280 280 281 281 282 282 283 283 284 285 286 287 289 291 295 299 304 306 307 311 316 321 325 331 338 345 350 356 6 18 28 33 37 35 38 50 61 60 58 213 235 227 224 222 221 226 229 230 235 242 252 255 258 261 260 258 251 247 247 246 247 245 244 245 246 248 250 252 254 256 259 263 264 267 271 273
270 271 271 272 272 273 273 274 274 275 276 276 277 278 279 280 280 280 280 281 281 281 282 283 284 284 285 287 292 296 298 300 305 310 314 317 322 331 336 341 346 353 7 16 24 27 26 26 35 48 49 41 349 240 234 230 229 231 230 231 236 249 257 249 253 261 261 260 252 243 242 241 242 241 242 243 245 248 251 255 259 262 265 267 265 267 270 270
270 270 270 271 271 271 271 272 272 273 273 274 275 275 276 277 278 278 278 278 278 278 278 279 279 279 279 279 281 285 288 292 295 299 303 306 310 316 320 326 330 333 341 352 2 9 13 12 9 18 32 33 24 344 254 235 233 232 227 226 226 238 252 245 248 256 257 259 251 240 236 235 235 236 240 243 246 249 253 258 261 262 263 264 262 264 265 264
269 270 270 270 270 270 271 271 271 271 271 272 272 273 273 274 275 276 276 276 275 275 275 275 275 275 275 274 273 274 279 283 286 290 294 297 301 304 307 311 315 318 321 328 336 344 354 359 356 353 360 14 18 12 347 265 236 230 225 222 222 231 244 244 249 254 253 254 249 238 232 230 231 236 241 244 247 250 254 257 257 256 254 252 250 253 258 258
268 269 269 269 270 270 270 270 270 271 271 271 271 271 271 271 271 272 273 273 273 273 273 273 272 272 272 271 269 268 270 275 279 283 286 288 292 295 299 300 301 305 307 311 315 319 329 338 344 343 340 348 3 11 5 349 279 229 222 221 224 232 242 244 250 253 251 248 243 236 231 230 232 237 242 246 248 250 251 250 247 243 236 237 241 247 254 254
267 268 268 268 269 269 269 269 270 270 270 270 270 270 270 270 270 269 269 270 270 270 270 270 269 269 269 269 268 265 266 270 274 277 276 278 283 287 290 292 292 294 295 297 300 303 307 316 326 333 333 334 341 356 4 2 352 275 216 222 229 235 240 241 247 253 250 243 238 233 231 231 233 235 240 244 246 245 242 241 237 228 223 230 242 249 253 257
268 268 268 268 269 269 269 269 269 269 269 269 269 269 269 268 269 268 268 268 268 268 268 268 267 267 266 266 265 264 263 266 270 271 270 270 273 277 281 283 285 286 286 287 288 291 294 300 308 317 323 326 330 337 351 2 358 350 222 217 230 237 241 243 249 254 249 237 231 228 227 227 228 230 235 237 239 237 234 231 226 220 224 233 241 246 255 263
267 268 268 268 269 269 269 270 270 270 270 269 269 268 268 267 267 267 266 266 266 266 266 265 265 265 265 264 262 262 261 262 265 267 268 267 266 268 273 276 278 281 281 281 281 281 284 290 296 302 311 317 320 325 332 350 358 350 347 293 228 239 242 243 246 249 240 228 223 220 220 222 225 227 230 231 231 231 228 224 221 221 228 235 240 248 259 265
266 267 267 268 268 269 270 270 270 270 270 270 270 269 268 267 266 266 266 265 265 264 264 263 263 263 263 263 261 260 259 258 261 263 266 267 265 263 266 270 273 275 277 278 278 278 278 283 287 290 297 305 310 315 320 330 347 353 347 351 349 270 249 242 242 239 228 222 220 219 219 222 224 223 225 228 228 228 226 223 221 225 231 238 245 253 258 260
269 269 269 269 270 270 270 271 271 271 270 270 270 269 268 267 266 265 265 264 264 264 263 262 262 261 261 261 260 259 258 257 257 258 262 265 265 263 261 264 267 270 272 275 276 277 277 278 280 283 285 292 301 306 310 315 329 347 351 351 357 349 289 251 241 235 226 221 222 223 223 225 227 222 220 225 228 228 225 224 226 230 236 243 249 254 254 252
273 273 273 273 273 273 273 273 273 273 272 271 271 270 269 268 266 265 264 263 263 263 262 262 261 261 260 259 259 258 257 256 255 255 257 260 263 263 261 260 263 265 268 270 272 274 275 276 277 277 278 282 288 296 302 305 311 329 347 351 353 4 355 289 248 238 229 223 224 227 227 230 232 227 220 222 228 230 227 226 229 234 239 245 249 248 246 242
275 275 276 276 276 276 276 276 275 275 274 274 273 272 271 270 269 267 265 264 263 262 261 260 260 260 260 259 258 257 255 255 254 254 254 256 259 261 260 259 259 261 263 265 267 270 272 273 275 274 274 274 278 284 290 295 298 307 328 343 350 8 19 341 265 239 231 228 229 230 229 230 232 229 221 220 226 229 228 228 230 236 241 245 243 233 225 224
274 275 275 276 276 276 276 276 276 276 276 275 275 274 274 273 272 270 269 267 265 263 262 261 259 258 258 259 258 257 255 254 253 253 252 253 255 257 258 257 256 258 260 262 263 265 268 270 271 273 272 269 270 275 278 284 290 293 299 315 338 3 38 38 337 222 223 226 227 226 224 223 222 221 218 217 223 226 227 228 231 239 242 239 224 199 184 195
273 274 274 275 275 276 276 276 276 276 276 276 276 276 275 275 274 273 272 270 268 266 265 263 261 259 257 257 257 257 256 254 252 252 251 251 252 254 255 255 254 255 258 260 261 262 263 266 268 270 270 268 266 267 267 272 280 283 282 281 297 339 35 61 68 97 177 203 211 210 209 214 215 215 218 217 221 224 224 227 233 238 233 218 194 171 167 174
272 273 273 274 275 275 275 276 276 276 277 277 277 277 277 276 276 275 274 272 271 269 267 265 263 261 259 257 256 255 255 254 253 251 251 250 249 250 252 253 252 252 254 257 259 259 259 261 263 264 267 269 266 262 261 264 272 274 272 269 264 266 291 59 75 90 125 171 187 194 191 202 214 218 227 225 223 225 227 231 231 226 212 191 171 162 161 161
271 272 272 273 273 274 275 275 276 277 278 278 279 279 279 279 278 278 276 275 274 272 270 268 265 263 261 259 256 255 254 253 252 251 250 249 248 248 249 251 250 249 251 253 256 257 257 257 259 261 263 265 264 260 257 259 266 268 266 265 259 250 242 212 125 113 120 156 164 172 175 192 218 217 226 232 229 229 229 226 217 204 188 166 155 155 154 153
270 271 271 271 272 273 274 275 276 277 278 279 279 280 280 280 280 279 279 278 278 276 274 271 268 265 263 261 258 256 254 252 251 250 250 249 248 247 247 248 249 248 248 249 252 255 256 256 256 258 257 257 259 260 257 254 260 264 263 262 258 249 239 226 217 164 121 145 157 157 165 186 210 204 211 222 221 219 215 206 194 182 169 154 149 152 152 154
270 271 271 271 272 273 274 274 275 276 277 278 279 279 279 279 280 279 279 279 279 279 278 276 274 270 267 264 261 258 256 253 251 249 249 248 247 247 246 246 247 247 246 246 248 251 254 257 256 255 254 254 256 258 257 254 255 260 260 259 256 250 242 234 231 214 167 155 170 173 175 184 200 202 203 202 200 199 190 181 174 169 163 156 154 156 157 159
272 272 273 273 274 274 275 275 276 276 277 277 277 278 278 278 278 278 279 279 278 278 279 278 277 275 271 269 266 261 258 255 252 250 248 247 246 246 246 245 245 246 245 244 245 247 252 256 255 252 252 251 251 253 254 254 253 255 257 258 256 252 247 240 236 228 212 196 185 183 191 199 204 205 197 186 181 178 171 169 170 171 168 163 160 161 161 162
275 275 275 276 276 276 277 278 279 279 280 279 279 279 278 278 277 277 278 278 277 276 277 277 277 277 275 272 271 267 262 259 255 252 249 246 245 244 244 244 243 244 244 244 243 244 247 250 249 249 249 247 247 249 249 251 252 253 255 256 255 253 249 243 236 230 223 216 202 187 195 210 202 188 179 170 166 166 167 171 176 178 176 170 164 164 164 163
276 276 276 276 276 276 277 279 280 282 282 282 282 281 281 281 280 279 278 278 277 274 274 277 275 275 275 274 274 272 268 264 260 256 252 248 245 243 243 243 242 242 243 243 242 241 242 245 246 249 250 247 245 246 246 247 249 252 254 255 253 252 251 245 237 231 226 221 217 200 193 206 201 184 173 169 170 170 174 178 180 184 181 174 168 167 168 167
276 276 276 275 275 275 276 277 278 280 281 281 282 282 282 283 283 283 281 282 283 277 274 279 279 276 273 272 274 274 273 270 266 261 257 252 247 244 243 242 241 241 241 241 241 240 241 244 246 249 252 251 248 246 247 246 245 249 252 254 253 250 248 245 239 235 231 222 219 214 201 202 202 192 182 182 185 183 185 187 187 186 182 174 169 170 172 172
275 276 276 276 275 274 274 275 276 277 279 280 279 280 281 282 283 284 283 285 287 284 281 284 287 283 275 270 270 271 273 273 270 266 262 257 251 247 244 242 240 240 239 239 239 239 240 242 244 246 250 252 250 246 246 245 242 244 248 252 252 249 247 245 240 237 236 228 221 217 214 210 204 200 197 195 195 192 192 196 194 189 184 177 173 174 175 173
275 275 276 276 276 275 273 274 275 276 277 277 277 278 279 280 281 281 282 283 284 285 287 286 286 286 283 277 272 268 269 271 271 270 267 263 257 252 247 243 240 239 238 238 237 238 239 241 241 243 246 249 249 246 244 244 240 239 242 248 251 249 247 246 241 238 238 235 226 218 218 218 211 206 206 203 200 199 199 200 199 194 190 186 183 183 183 181
275 275 276 276 277 276 275 274 275 276 276 276 276 277 277 278 279 279 280 281 280 281 283 281 281 284 287 285 279 273 268 268 268 268 269 268 263 258 253 247 243 239 238 237 236 236 238 239 239 241 243 246 249 248 245 244 240 234 235 241 247 247 246 245 241 237 237 237 231 222 218 218 216 212 210 208 203 204 204 202 203 201 198 197 197 196 195 197
275 275 276 276 276 277 276 275 275 276 276 276 276 276 276 276 277 277 278 280 280 278 277 279 280 281 282 283 283 280 274 270 267 264 266 267 265 264 259 254 249 242 239 236 236 236 237 238 237 238 241 243 247 248 245 242 240 235 233 235 241 244 243 242 240 237 237 237 234 230 224 217 217 217 214 212 209 209 208 205 206 206 205 207 209 210 210 212
276 276 276 277 276 276 277 276 275 275 275 275 276 276 276 276 276 276 278 280 279 276 275 278 280 278 277 278 281 280 278 275 270 265 265 262 261 265 264 260 256 249 242 237 235 235 236 237 236 236 239 240 243 245 245 243 240 238 236 235 237 241 242 241 239 237 235 235 234 235 232 223 220 221 220 217 214 215 213 211 211 210 210 214 216 219 221 222
276 277 277 277 278 277 277 277 276 275 274 275 275 275 276 276 276 277 280 280 277 275 275 276 276 276 277 277 276 276 277 277 272 269 270 265 257 258 260 261 261 257 249 241 235 235 235 236 235 235 237 238 240 242 245 244 241 239 239 237 237 240 242 240 238 237 234 232 234 236 234 228 224 223 222 220 218 218 216 213 214 214 215 219 221 222 225 225
275 275 276 276 277 277 276 277 277 276 275 275 275 275 275 275 276 280 282 279 274 274 276 273 272 274 276 276 276 276 276 275 272 270 272 269 260 256 256 257 259 259 256 249 241 236 235 235 235 235 235 236 238 240 242 244 243 241 240 238 238 239 241 242 239 237 235 233 235 237 235 231 228 225 222 221 221 221 219 216 216 217 218 221 224 225 227 228
274 274 274 274 275 275 275 275 275 275 275 275 274 274 275 274 278 282 280 276 274 275 275 273 272 273 274 274 275 276 276 276 274 271 271 269 265 260 258 256 255 257 257 254 249 242 237 235 234 235 235 235 237 238 240 243 244 243 240 237 237 238 241 243 243 239 237 236 237 237 235 231 230 231 227 223 223 223 222 221 220 220 220 221 225 228 230 232
276 275 275 274 274 274 275 275 274 275 275 274 274 274 274 276 281 280 276 275 275 275 274 273 273 271 272 273 273 273 275 277 276 273 271 270 267 263 261 258 254 255 256 255 254 251 243 236 234 235 235 235 235 237 238 240 242 243 241 238 237 238 239 241 244 243 240 239 238 236 234 230 231 235 232 228 227 224 223 224 224 224 223 223 225 228 231 231
276 276 276 275 275 274 275 275 275 275 275 274 274 274 275 279 281 276 274 274 274 273 273 274 272 271 270 271 272 272 272 273 274 274 272 271 270 266 263 261 257 256 256 254 253 255 252 244 236 234 235 235 235 235 236 237 237 240 241 238 235 235 237 237 238 241 240 238 238 236 233 231 232 235 234 231 229 227 225 224 225 226 226 226 226 228 229 230
275 275 275 275 274 274 274 275 276 275 275 275 274 274 276 279 277 273 272 272 271 272 273 273 273 272 271 270 270 272 270 269 270 271 271 271 272 269 266 265 263 260 259 258 253 252 253 252 244 236 233 235 236 235 235 236 237 239 241 240 235 234 237 236 234 235 237 236 235 234 232 231 232 233 233 233 231 229 228 226 225 226 227 229 228 229 231 232
275 275 274 274 274 274 274 275 275 275 275 275 274 275 277 276 274 273 273 271 271 271 271 272 273 273 272 270 269 269 270 268 266 267 269 269 270 271 269 268 268 265 262 261 258 252 249 252 252 244 236 235 237 236 234 235 236 237 240 241 239 237 238 237 235 235 236 236 234 233 231 232 232 232 234 235 234 233 232 229 227 227 228 229 228 230 235 236
274 274 274 273 273 273 273 274 274 273 274 274 274 276 276 274 273 272 272 271 270 269 269 270 272 272 272 271 270 269 268 268 267 266 266 266 267 269 270 268 269 269 266 264 262 256 250 249 251 251 245 239 237 237 235 235 236 237 238 240 239 238 237 237 236 236 237 237 236 234 232 231 231 232 235 238 237 237 237 234 230 230 231 231 229 230 238 240
273 274 274 273 273 273 272 272 272 273 273 273 274 275 274 273 272 270 269 268 268 268 268 268 269 270 270 270 271 269 268 267 267 266 265 265 264 265 267 268 268 269 269 268 265 260 255 252 249 248 250 247 242 239 237 235 237 238 238 238 238 238 238 238 237 237 239 239 238 236 234 232 231 231 235 239 238 237 239 238 235 234 235 235 233 230 236 241
273 274 274 274 273 273 273 273 273 273 273 273 274 274 273 272 271 270 269 268 267 267 267 267 267 267 268 269 269 268 267 266 266 266 266 265 264 262 263 265 266 267 268 268 268 265 258 255 254 247 245 249 249 245 243 239 237 239 238 237 237 237 238 239 237 235 236 238 237 236 236 235 233 233 234 238 238 237 239 240 238 238 237 237 239 235 234 240
273 273 274 274 274 273 273 273 273 273 273 273 274 273 273 273 272 271 270 269 268 267 267 266 265 265 266 267 267 266 266 265 264 265 265 264 264 263 261 262 263 264 265 265 268 268 263 257 258 254 243 244 251 253 251 244 237 237 238 237 236 236 237 239 238 234 234 236 236 235 236 236 235 235 235 237 238 238 239 239 238 240 240 238 241 240 235 239
273 273 273 273 273 273 273 272 272 273 273 273 273 273 273 272 272 271 270 269 268 268 268 267 266 266 266 266 265 265 265 265 264 263 263 263 263 262 261 260 260 261 262 263 264 268 267 260 257 258 250 241 244 249 251 249 241 236 237 237 237 236 236 238 239 235 233 235 236 235 235 236 236 236 236 237 238 238 239 239 237 240 241 240 243 244 239 239
273 273 273 273 273 272 272 272 272 272 272 272 272 272 271 271 271 271 271 270 269 269 268 267 267 267 266 266 265 264 264 264 264 263 263 262 260 260 260 259 258 259 260 261 261 263 267 263 256 256 256 247 240 240 246 253 250 241 237 237 238 237 236 238 240 239 236 235 236 235 233 233 235 237 237 238 239 239 239 239 238 238 239 240 242 244 241 240
272 272 272 272 272 272 271 271 271 271 271 271 270 270 270 270 270 270 270 270 269 269 268 268 267 266 265 265 265 264 263 262 263 263 263 262 259 257 257 257 257 258 258 259 260 259 263 265 260 254 257 255 245 238 242 252 256 250 241 238 239 239 237 238 239 240 238 235 235 236 234 231 233 235 236 239 241 241 240 240 238 238 239 240 242 243 242 240
272 271 271 271 271 271 271 270 270 270 270 269 269 269 269 269 269 269 269 269 268 268 267 267 266 265 265 264 264 263 263 263 263 262 262 261 260 258 256 256 255 257 257 258 258 258 259 264 264 256 253 258 253 242 241 251 257 256 251 244 240 239 239 238 238 239 238 236 234 235 234 232 233 234 234 236 239 242 242 241 240 238 239 240 242 245 244 241
271 270 270 270 270 270 270 270 269 269 268 268 268 268 268 268 268 268 267 267 267 267 266 265 265 264 263 263 263 262 263 263 263 261 260 260 260 259 256 255 255 255 255 256 258 259 258 260 263 260 253 257 260 250 243 249 251 252 253 248 241 237 237 238 238 238 238 237 235 235 233 233 234 234 234 234 236 239 241 243 242 239 239 240 242 245 245 242
271 270 269 269 269 270 270 269 269 268 268 267 267 267 267 267 266 266 266 266 265 264 263 263 262 262 262 262 262 261 261 261 261 260 258 258 259 259 257 255 255 254 254 255 257 258 258 258 261 263 260 257 260 257 251 249 248 247 251 251 245 239 237 237 237 237 237 237 236 234 233 233 233 234 234 234 236 238 239 241 243 242 239 240 241 243 244 244
272 271 270 270 270 270 270 270 269 268 268 268 267 267 266 266 266 265 265 264 264 263 262 262 262 262 261 261 260 259 258 258 258 258 257 256 257 258 257 255 255 255 254 254 255 256 257 258 259 262 262 259 257 259 258 254 249 248 251 253 251 245 239 237 237 237 236 237 236 234 233 234 233 233 234 233 235 237 238 238 241 243 241 239 240 241 242 243
274 273 272 271 271 270 270 270 270 269 268 268 267 266 266 265 265 264 264 263 263 262 262 262 261 260 259 258 257 257 256 256 256 256 256 255 256 256 256 255 255 257 255 252 252 254 256 257 258 259 260 260 258 258 260 259 255 252 251 252 253 251 245 240 237 237 238 238 237 235 234 234 234 234 235 234 233 235 236 235 237 240 242 240 240 241 241 242
275 274 273 272 272 271 270 270 269 269 268 267 267 265 264 264 263 263 262 262 261 261 260 260 259 259 259 258 258 257 257 257 257 256 256 255 254 254 255 254 255 257 258 255 252 254 255 256 258 258 258 259 259 258 258 260 260 258 254 252 253 252 250 245 239 237 238 238 237 236 235 234 234 234 235 234 233 233 235 235 234 237 241 241 240 240 240 241
276 276 275 274 273 272 271 270 269 269 268 267 266 265 264 263 262 261 260 259 259 259 259 258 258 257 257 257 256 256 255 255 255 256 256 256 256 255 256 256 257 259 260 259 255 255 255 256 256 257 256 257 258 259 259 259 261 260 257 255 255 255 253 251 245 240 238 238 238 237 236 234 233 234 235 235 234 234 234 235 234 235 239 242 242 241 240 241
277 277 276 275 274 273 272 270 269 268 267 266 265 264 263 261 260 259 258 257 257 257 256 256 255 255 254 254 254 254 254 254 254 254 254 255 256 257 258 259 260 261 261 260 257 255 256 256 255 256 256 256 257 259 260 260 260 259 257 257 259 259 256 254 250 246 241 238 237 237 237 235 233 234 235 236 235 234 234 235 235 235 237 240 241 242 242 241
278 277 276 275 274 273 271 270 268 267 266 264 263 262 260 259 258 256 255 255 254 254 253 253 253 252 252 251 251 252 252 253 252 252 251 251 252 253 255 255 256 258 259 260 258 257 257 257 256 257 257 257 257 258 260 260 259 257 259 263 264 260 256 252 248 246 244 240 237 237 236 235 234 234 233 234 235 235 234 235 236 237 237 239 240 241 242 242